TIANMU-1 09

Last updated on Fri Sep 11 2026 00:02:39 GMT+0000 (Coordinated Universal Time)

1 57401U 23101C 26253.44958847 .00004903 00000+0 16804-3 0 9998 2 57401 97.2468 301.3032 0003453 165.3148 194.8194 15.30640115174688
UTC large
Height (km)
Speed (km/s)
/
Latitude / Longitude
Inclination (degrees)
Orbital Period (minutes)
Azimuth
Elevation
Range (km)
Doppler Factor

Next 0 passes for location: London (51.5072 / 0.1276)

No passes found over London.
TIANMU-1 09